[[{"header":{"parameterUnit":"m.s-1","parameterCategory":1,"la1":30.2991,"la2":30.254,"lo1":-89.0895,"lo2":-89.0444,"dy":0.0017,"dx":0.0017,"nx":28,"ny":28,"refTime":"2026-01-30T03:00:00:Z","depth":0,"parameterNumber":2,"parameterNumberName":"U-component_of_WINDS"},"data":[0,0,0,0,0,0,0,0,0,0,0,0,0,0,0,0,0,0,0,0,0,0,0,0,0,0,0,0,0,0,0,0,0,0,0,0,0,0,0,0,0,0,0,0,0,0,0,0,0,0,0,0,0,0,0,0,0,0,4.8304,4.8305,0,4.8386,4.8387,4.8388,4.8366,4.8365,4.8363,4.8362,4.8443,4.8446,4.845,0,0,0,0,0,0,0,0,0,0,0,0,0,4.8128,4.8132,4.8304,4.8305,4.8306,4.8386,4.8387,4.8388,4.8367,4.8365,4.8363,4.8361,4.8441,4.8446,4.845,0,0,0,0,0,0,0,0,0,0,0,0,0,4.8207,4.8133,4.8304,4.8305,4.8306,4.8386,4.8387,4.8389,4.8367,4.8365,4.8362,4.836,4.844,4.8445,4.8451,4.8533,0,0,4.8467,4.847,0,0,0,0,0,0,0,0,4.8202,4.8213,4.8304,4.8305,4.8306,4.8364,4.8355,4.8437,4.8368,4.8344,4.8361,4.8359,4.8418,4.8425,4.8446,4.8537,4.8541,4.8468,4.8471,4.8474,4.8475,0,0,0,0,0,0,0,4.8197,4.821,4.8336,4.8305,4.8307,4.8301,4.831,4.837,4.8393,4.8346,4.8344,4.8354,4.8418,4.8441,4.8448,4.8542,4.8468,4.8473,4.8476,4.8478,4.8708,4.871,0,0,0,0,0,0,4.8191,4.8205,4.8334,4.8339,4.8247,4.8306,4.8316,4.8348,4.8393,4.8397,4.8356,4.8353,4.8432,4.8441,4.845,4.8552,4.8474,4.8479,4.8482,4.8705,4.8708,4.8711,0,0,0,0,0,0,4.8187,4.8202,4.8331,4.8272,4.8288,4.8312,4.8348,4.8351,4.8373,4.8401,4.8405,4.8375,4.8431,4.8443,4.8514,4.8554,4.8481,4.8486,4.8702,4.8706,4.871,4.8754,0,0,0,0,0,0,4.8182,4.8201,4.8233,4.8273,4.8291,4.8393,4.835,4.8354,4.8383,4.8379,4.8419,4.8424,4.843,4.8506,4.8519,4.856,4.8491,4.8698,4.8704,4.8709,4.8749,4.8759,4.8768,0,0,0,0,0,4.8176,4.8241,4.8235,4.825,4.8331,4.8395,4.8405,4.8412,4.8386,4.8418,4.8437,4.8422,4.8548,4.8513,4.8528,4.8571,4.8696,4.8702,4.8708,4.8744,4.8757,4.8767,0,0,0,0,0,0,4.8203,4.8246,4.8239,4.8319,4.8354,4.8391,4.8432,4.8424,4.8466,4.8461,4.8467,4.8476,4.8549,4.8567,4.8528,4.8655,4.8618,4.8627,4.864,4.8652,4.8662,4.8655,4.8495,0,0,0,0,0,4.8219,4.8268,4.8302,4.8369,4.8387,4.8407,4.8435,4.8437,4.8473,4.8487,4.8511,4.8545,4.8593,4.8624,4.8668,4.8752,4.8761,4.8789,4.8799,4.8806,4.8814,4.8861,4.8875,4.8732,4.8732,4.8732,0,0,4.8251,4.828,4.831,4.8376,4.8403,4.8453,4.8419,4.8473,4.8511,4.8495,4.8564,4.8583,4.8622,4.8701,4.8736,4.8718,4.8856,4.8814,4.882,4.8824,4.8869,4.8883,4.8895,4.8736,4.8736,4.8735,0,0,4.8335,4.8362,4.8422,4.8451,4.8493,4.8506,4.8521,4.856,4.8573,4.8643,4.8632,4.8677,4.8758,4.8787,4.8813,4.8912,4.8901,4.8926,4.8975,4.9021,4.9032,4.9042,4.9078,4.9091,4.8934,4.8935,4.8935,0,4.8369,4.8445,4.8453,4.851,4.8539,4.8529,4.859,4.8617,4.8672,4.8692,4.8672,4.8775,4.8801,4.8887,4.8911,4.8932,4.8949,4.8921,4.903,4.904,4.905,4.9084,4.9098,4.8937,4.8937,4.8937,4.8936,0,4.8486,4.8539,4.8582,4.8637,4.8672,4.873,4.8747,4.8781,4.8781,4.8797,4.8869,4.89,4.8952,4.8973,4.8973,4.9059,4.9047,4.9029,4.8991,4.9066,4.9099,4.9112,4.8942,4.894,4.894,4.8939,0,0,4.8587,4.8648,4.8664,4.869,4.8737,4.8779,4.8837,4.889,4.8919,4.8958,4.9008,4.9078,4.9062,4.9091,4.9095,4.9135,4.9213,4.9112,4.9113,4.913,4.9312,4.9326,4.9341,4.9207,4.9209,4.9212,4.9309,0,4.8676,4.878,4.879,4.8883,4.8933,4.8926,4.8978,4.9012,4.9029,4.9074,4.9092,4.9143,4.9117,4.9135,4.9175,4.9195,4.925,4.9189,4.9253,4.9255,4.9243,4.9358,4.9372,4.9462,4.9322,4.9324,4.9325,0,4.8792,4.8837,4.8936,4.8979,4.9,4.9046,4.9096,4.914,4.918,4.9189,4.9224,4.9222,4.9283,4.9245,4.9329,4.9287,4.9315,4.9329,4.9333,4.9338,4.9294,4.9367,4.9491,4.9505,4.9345,4.9344,4.9342,0,4.8857,4.8942,4.9012,4.9035,4.9086,4.9119,4.9142,4.918,4.9212,4.9256,4.9277,4.9327,4.9354,4.9393,4.9406,4.9376,4.949,4.9452,4.95,4.95,4.9523,4.9521,4.9654,4.9542,4.9541,4.9541,4.9541,0,4.8955,4.9016,4.9042,4.9086,4.9154,4.9166,4.9233,4.9254,4.9289,4.9336,4.9333,4.9378,4.9392,4.944,4.945,4.9519,4.9531,4.9541,4.9543,4.9541,4.954,4.9558,4.9552,4.9545,4.9544,4.9543,4.9543,0,4.9038,4.9058,4.9135,4.9179,4.9192,4.924,4.9278,4.932,4.9337,4.9398,4.9412,4.9439,4.9495,4.9513,4.9579,4.9586,4.9667,4.9664,4.9654,4.9654,4.9701,4.9697,4.9849,4.9871,4.9745,4.9746,4.9747,0,4.9099,4.9146,4.9196,4.9228,4.9253,4.9305,4.9338,4.9352,4.9387,4.9438,4.9475,4.953,4.9575,4.9665,4.969,4.9742,4.974,4.979,4.9747,4.9745,4.9741,4.9738,4.9743,4.9797,4.9799,4.98,4.9801,0,4.9205,4.9214,4.9262,4.9315,4.9355,4.9397,4.9438,4.9464,4.9485,4.9524,4.9582,4.9617,4.9687,4.9743,4.9796,4.9819,4.9814,4.9814,4.9828,4.9826,4.9819,4.9824,4.9676,4.981,4.9809,4.9809,4.9808,4.9808,4.9279,4.9321,4.9364,4.9419,4.9451,4.949,4.9532,4.9556,4.9605,4.9664,4.9669,4.9732,4.9774,4.9845,4.9871,4.9921,4.9906,4.9926,4.9931,4.9936,4.994,4.9812,4.9931,4.993,4.993,4.993,4.993,0,4.9385,4.9413,4.9464,4.9522,4.9565,4.9558,4.9604,4.964,4.9696,4.9735,4.9781,4.9849,4.9904,4.9935,4.9989,5.0023,5.0022,5.0037,5.0034,5.004,4.9949,4.9932,5.0037,5.0037,5.0037,5.0037,5.0037,5.0037,4.9446,4.9518,4.9532,4.962,4.9647,4.971,4.9737,4.9773,4.9805,4.9881,4.9927,4.9947,4.9984,5.0042,5.0092,5.01,5.012,5.0137,5.0143,5.0057,5.0046,5.0036,5.002,5.0141,5.0141,5.023,5.023,5.0231]},{"header":{"parameterUnit":"m.s-1","parameterCategory":1,"la1":30.2991,"la2":30.254,"lo1":-89.0895,"lo2":-89.0444,"dy":0.0017,"dx":0.0017,"nx":28,"ny":28,"refTime":"2026-01-30T03:00:00:Z","depth":0,"parameterNumber":3,"parameterNumberName":"V-component_of_WINDS"},"data":[0,0,0,0,0,0,0,0,0,0,0,0,0,0,0,0,0,0,0,0,0,0,0,0,0,0,0,0,0,0,0,0,0,0,0,0,0,0,0,0,0,0,0,0,0,0,0,0,0,0,0,0,0,0,0,0,0,0,-10.2761,-10.2763,0,-10.2914,-10.2915,-10.2917,-10.2837,-10.2833,-10.2829,-10.2825,-10.2974,-10.2981,-10.2989,0,0,0,0,0,0,0,0,0,0,0,0,0,-10.2396,-10.2403,-10.2761,-10.2763,-10.2765,-10.2913,-10.2915,-10.2918,-10.2837,-10.2832,-10.2827,-10.2823,-10.2971,-10.2981,-10.299,0,0,0,0,0,0,0,0,0,0,0,0,0,-10.2552,-10.2405,-10.2761,-10.2743,-10.2743,-10.2913,-10.2916,-10.2918,-10.2838,-10.2832,-10.2826,-10.282,-10.2968,-10.298,-10.2991,-10.3185,0,0,-10.3027,-10.3032,0,0,0,0,0,0,0,0,-10.2543,-10.2565,-10.2744,-10.2745,-10.2745,-10.285,-10.2841,-10.3007,-10.284,-10.2802,-10.2825,-10.2818,-10.2937,-10.2951,-10.2993,-10.3192,-10.3199,-10.3028,-10.3035,-10.304,-10.3043,0,0,0,0,0,0,0,-10.2532,-10.2558,-10.2821,-10.2746,-10.2747,-10.2726,-10.2741,-10.2872,-10.2902,-10.2805,-10.2799,-10.2819,-10.2936,-10.2982,-10.2996,-10.3201,-10.3027,-10.3038,-10.3045,-10.305,-10.357,-10.3576,0,0,0,0,0,0,-10.2523,-10.255,-10.2816,-10.2826,-10.2627,-10.2737,-10.2755,-10.2822,-10.29,-10.2906,-10.2824,-10.2815,-10.2965,-10.2982,-10.3001,-10.3235,-10.304,-10.3051,-10.3057,-10.3563,-10.3571,-10.3579,0,0,0,0,0,0,-10.2516,-10.2548,-10.281,-10.2687,-10.2718,-10.275,-10.2827,-10.2829,-10.2874,-10.2915,-10.2919,-10.2866,-10.2961,-10.2984,-10.3141,-10.3239,-10.3056,-10.3067,-10.3555,-10.3566,-10.3575,-10.3704,0,0,0,0,0,0,-10.2506,-10.2546,-10.2621,-10.2689,-10.2725,-10.295,-10.2833,-10.2836,-10.2895,-10.2884,-10.2955,-10.296,-10.2958,-10.3124,-10.3153,-10.3252,-10.3076,-10.3546,-10.356,-10.3572,-10.3691,-10.3718,-10.374,0,0,0,0,0,-10.2493,-10.2649,-10.2625,-10.2657,-10.282,-10.2956,-10.2976,-10.2972,-10.2903,-10.2979,-10.3005,-10.2958,-10.3224,-10.3141,-10.3172,-10.3276,-10.354,-10.3556,-10.3571,-10.368,-10.3713,-10.374,0,0,0,0,0,0,-10.2588,-10.2657,-10.2631,-10.2814,-10.288,-10.2942,-10.3036,-10.3006,-10.309,-10.3076,-10.3065,-10.3082,-10.3246,-10.3276,-10.3183,-10.347,-10.3371,-10.3393,-10.3444,-10.3474,-10.3498,-10.3488,-10.3085,0,0,0,0,0,-10.2631,-10.2737,-10.2791,-10.2947,-10.2982,-10.3004,-10.3063,-10.3054,-10.3121,-10.3147,-10.3185,-10.325,-10.3348,-10.3413,-10.3505,-10.3696,-10.371,-10.3783,-10.3807,-10.3827,-10.3846,-10.3951,-10.3985,-10.3629,-10.3629,-10.3629,0,0,-10.2719,-10.277,-10.2837,-10.2968,-10.3018,-10.3127,-10.3028,-10.3146,-10.3227,-10.3164,-10.3316,-10.3347,-10.3418,-10.3594,-10.3672,-10.3624,-10.3948,-10.3846,-10.3862,-10.3871,-10.397,-10.4004,-10.4034,-10.364,-10.3638,-10.3636,0,0,-10.2936,-10.2985,-10.3122,-10.3176,-10.3254,-10.3268,-10.3301,-10.3369,-10.3388,-10.3541,-10.3497,-10.3591,-10.376,-10.3814,-10.3863,-10.4105,-10.4065,-10.4135,-10.4262,-10.4365,-10.4393,-10.4418,-10.4505,-10.4537,-10.4154,-10.4155,-10.4155,0,-10.3035,-10.32,-10.3196,-10.332,-10.3379,-10.3331,-10.347,-10.352,-10.3624,-10.3665,-10.361,-10.3824,-10.3868,-10.4056,-10.4116,-10.4157,-10.4194,-10.4127,-10.439,-10.4414,-10.4437,-10.4521,-10.4554,-10.4163,-10.4162,-10.4161,-10.416,0,-10.332,-10.3435,-10.3536,-10.3641,-10.3711,-10.3842,-10.3856,-10.3928,-10.3914,-10.3934,-10.4091,-10.4143,-10.4246,-10.429,-10.4276,-10.4478,-10.4446,-10.4391,-10.4291,-10.448,-10.4558,-10.459,-10.4174,-10.4171,-10.4169,-10.4167,0,0,-10.3599,-10.3703,-10.374,-10.3789,-10.3873,-10.3961,-10.409,-10.4194,-10.4256,-10.433,-10.4437,-10.4583,-10.4534,-10.459,-10.4582,-10.4672,-10.4863,-10.4606,-10.4608,-10.4653,-10.5089,-10.5131,-10.5168,-10.4837,-10.4843,-10.4848,-10.5084,0,-10.3823,-10.4051,-10.4053,-10.4262,-10.4369,-10.4326,-10.4438,-10.4502,-10.4525,-10.4617,-10.4641,-10.4746,-10.4672,-10.4706,-10.4793,-10.4821,-10.495,-10.4804,-10.4936,-10.4941,-10.4921,-10.5208,-10.5252,-10.5472,-10.5114,-10.5119,-10.5123,0,-10.4115,-10.4202,-10.4424,-10.4496,-10.454,-10.4642,-10.4739,-10.4828,-10.4899,-10.4909,-10.4975,-10.4954,-10.5084,-10.4982,-10.5161,-10.5062,-10.5116,-10.5138,-10.5146,-10.5159,-10.5044,-10.5229,-10.5542,-10.5576,-10.5171,-10.5167,-10.5163,0,-10.4299,-10.4471,-10.4627,-10.4669,-10.4756,-10.4829,-10.4868,-10.4933,-10.4997,-10.5081,-10.5122,-10.5219,-10.5273,-10.5348,-10.5353,-10.5278,-10.5535,-10.5432,-10.5546,-10.5547,-10.5602,-10.5599,-10.5929,-10.5636,-10.5636,-10.5635,-10.5635,0,-10.4549,-10.4687,-10.4711,-10.4807,-10.496,-10.4959,-10.511,-10.5143,-10.5202,-10.5303,-10.527,-10.5365,-10.5366,-10.5462,-10.5467,-10.5616,-10.564,-10.5651,-10.5651,-10.5655,-10.5654,-10.569,-10.5675,-10.5644,-10.5642,-10.564,-10.5639,0,-10.478,-10.4802,-10.4969,-10.504,-10.5061,-10.517,-10.523,-10.5321,-10.5341,-10.5469,-10.5499,-10.5531,-10.5643,-10.5656,-10.5786,-10.5789,-10.5969,-10.5952,-10.5946,-10.5944,-10.6058,-10.6047,-10.6423,-10.6473,-10.6147,-10.6151,-10.6153,0,-10.4939,-10.5045,-10.5128,-10.5195,-10.5239,-10.5346,-10.5412,-10.5416,-10.5486,-10.5577,-10.5657,-10.5767,-10.5855,-10.6036,-10.6069,-10.6168,-10.6154,-10.6279,-10.6168,-10.617,-10.6157,-10.6151,-10.6162,-10.63,-10.6304,-10.6307,-10.6309,0,-10.5219,-10.5226,-10.5324,-10.5427,-10.5508,-10.5588,-10.5663,-10.5719,-10.5732,-10.5812,-10.5928,-10.5997,-10.6132,-10.6241,-10.634,-10.6378,-10.6347,-10.6344,-10.6376,-10.6381,-10.6374,-10.6381,-10.6005,-10.6335,-10.6333,-10.6331,-10.6329,-10.6328,-10.542,-10.5513,-10.5587,-10.5698,-10.5756,-10.5828,-10.5918,-10.5952,-10.605,-10.6162,-10.6158,-10.6286,-10.6356,-10.6486,-10.6532,-10.6631,-10.6589,-10.6635,-10.6647,-10.6658,-10.6671,-10.6359,-10.6649,-10.6648,-10.6647,-10.6647,-10.6646,0,-10.57,-10.5746,-10.5848,-10.5957,-10.6045,-10.601,-10.6093,-10.6167,-10.6282,-10.6351,-10.644,-10.6574,-10.6681,-10.6724,-10.6829,-10.69,-10.6888,-10.6927,-10.6922,-10.6932,-10.6701,-10.6664,-10.6935,-10.6935,-10.6935,-10.6935,-10.6935,-10.6935,-10.5856,-10.6012,-10.6028,-10.6213,-10.6257,-10.6386,-10.6436,-10.6502,-10.6558,-10.6711,-10.6801,-10.6829,-10.6889,-10.6997,-10.7094,-10.7103,-10.7144,-10.719,-10.7193,-10.6977,-10.6948,-10.692,-10.6885,-10.7198,-10.7198,-10.7416,-10.7418,-10.7419]}]]